FW5313 Weather Reports


Display with metric or nautical units.
time (UTC)temp
F
wind
direction
speed
MPH
gust
MPH
rain 1hr
in
rain 24hr
in
rain mn
in
humidity
%
barometer
mb
20260906114558 53 255 0.0 2.0 0.00 0.25 0.05 98 1016.0
20260906114045 54 264 0.0 2.0 0.00 0.25 0.05 98 1016.0
20260906113544 53 0 0.0 1.0 0.00 0.25 0.05 98 1016.0
20260906113055 53 240 0.0 1.0 0.00 0.25 0.05 98 1015.9
20260906112545 53 240 0.0 1.0 0.00 0.25 0.05 98 1015.8
20260906112045 53 240 0.0 1.0 0.00 0.25 0.05 98 1015.7
20260906111601 53 0 0.0 1.0 0.00 0.25 0.05 98 1015.7
20260906111044 53 241 0.0 2.0 0.00 0.25 0.05 98 1015.6
20260906110544 53 262 0.0 2.0 0.00 0.25 0.05 98 1015.6
20260906110057 53 279 0.0 3.0 0.00 0.25 0.05 98 1015.6
20260906105544 53 264 0.0 3.0 0.00 0.25 0.05 98 1015.6
20260906105045 53 218 0.0 1.0 0.00 0.25 0.05 98 1015.5
20260906104557 53 0 0.0 1.0 0.00 0.25 0.05 98 1015.6
20260906104045 53 255 0.0 2.0 0.00 0.25 0.05 98 1015.4
20260906103549 53 0 0.0 2.0 0.00 0.25 0.05 98 1015.3
20260906103054 53 257 0.0 1.0 0.00 0.25 0.05 98 1015.5
20260906102546 53 0 0.0 1.0 0.00 0.25 0.05 98 1015.3
20260906102044 53 0 0.0 1.0 0.00 0.25 0.05 98 1015.2
20260906101600 53 0 0.0 1.0 0.01 0.25 0.05 98 1015.2
20260906101046 53 0 0.0 1.0 0.01 0.25 0.05 98 1015.2
20260906100544 53 0 0.0 1.0 0.02 0.25 0.05 98 1015.1
20260906100058 53 0 0.0 2.0 0.02 0.25 0.05 98 1015.1
20260906095544 53 0 0.0 2.0 0.02 0.25 0.05 98 1015.0
20260906095045 53 0 0.0 1.0 0.02 0.25 0.05 98 1015.0
20260906094603 53 0 0.0 1.0 0.02 0.25 0.05 98 1015.0
20260906094044 53 0 0.0 1.0 0.02 0.25 0.05 98 1015.0
20260906093545 53 0 0.0 1.0 0.02 0.25 0.05 98 1014.9
20260906093059 53 0 0.0 0.0 0.02 0.25 0.05 98 1014.9
20260906092546 53 0 0.0 1.0 0.02 0.25 0.05 98 1014.9
20260906092044 53 0 0.0 1.0 0.02 0.25 0.05 98 1014.7
20260906091554 53 0 0.0 1.0 0.01 0.24 0.04 98 1014.9
20260906091047 53 0 0.0 1.0 0.01 0.24 0.04 98 1014.8
20260906090546 53 0 0.0 1.0 0.00 0.23 0.03 98 1014.8
20260906090101 53 0 0.0 1.0 0.00 0.23 0.03 98 1014.7
20260906085545 53 0 0.0 1.0 0.00 0.23 0.03 98 1014.7
20260906085048 53 0 0.0 1.0 0.00 0.23 0.03 98 1014.6
20260906084601 53 0 0.0 1.0 0.00 0.23 0.03 98 1014.6
20260906084047 53 0 0.0 0.0 0.00 0.23 0.03 98 1014.5
20260906083544 53 0 0.0 0.0 0.00 0.23 0.03 98 1014.4
20260906083103 53 0 0.0 0.0 0.00 0.23 0.03 97 1014.5
20260906082548 53 0 0.0 0.0 0.00 0.23 0.03 97 1014.6
20260906082046 53 0 0.0 0.0 0.00 0.23 0.03 97 1014.5
20260906081554 53 0 0.0 0.0 0.00 0.23 0.03 97 1014.4
20260906081045 53 0 0.0 0.0 0.00 0.23 0.03 97 1014.5
20260906080545 53 0 0.0 0.0 0.00 0.23 0.03 97 1014.5
20260906080059 53 0 0.0 0.0 0.00 0.23 0.03 97 1014.5
20260906075545 53 0 0.0 0.0 0.01 0.23 0.03 97 1014.5
20260906075044 53 0 0.0 0.0 0.01 0.23 0.03 97 1014.5
20260906074556 53 0 0.0 0.0 0.01 0.23 0.03 97 1014.3
20260906074048 53 0 0.0 0.0 0.01 0.23 0.03 97 1014.4
20260906073547 53 0 0.0 0.0 0.01 0.23 0.03 97 1014.4
20260906073100 53 0 0.0 1.0 0.01 0.23 0.03 97 1014.5
20260906072544 53 0 0.0 1.0 0.01 0.23 0.03 97 1014.6
20260906072048 53 0 0.0 0.0 0.01 0.23 0.03 97 1014.4
20260906071555 53 0 0.0 0.0 0.01 0.23 0.03 97 1014.4
20260906071046 53 0 0.0 0.0 0.01 0.23 0.03 97 1014.3
20260906070545 53 0 0.0 0.0 0.01 0.23 0.03 97 1014.4
20260906070100 53 0 0.0 0.0 0.01 0.23 0.03 97 1014.3
20260906065546 53 0 0.0 0.0 0.00 0.22 0.02 97 1014.3
20260906065046 53 0 0.0 0.0 0.00 0.22 0.02 97 1014.4
20260906064558 53 0 0.0 0.0 0.00 0.22 0.02 97 1014.4
20260906064045 53 0 0.0 0.0 0.00 0.22 0.02 97 1014.3
20260906063545 53 0 0.0 0.0 0.00 0.22 0.02 97 1014.5
20260906063100 53 0 0.0 0.0 0.00 0.22 0.02 97 1014.5
20260906062544 53 0 0.0 0.0 0.00 0.22 0.02 97 1014.4
20260906062045 53 0 0.0 0.0 0.01 0.22 0.02 97 1014.4
20260906061559 53 0 0.0 0.0 0.01 0.22 0.02 97 1014.4
20260906061046 53 0 0.0 0.0 0.02 0.22 0.02 97 1014.4
20260906060545 53 0 0.0 0.0 0.02 0.22 0.02 97 1014.4
20260906060136 53 0 0.0 0.0 0.02 0.22 0.02 97 1014.4
20260906055550 53 0 0.0 0.0 0.02 0.22 0.02 97 1014.4
20260906055046 53 0 0.0 0.0 0.02 0.22 0.02 97 1014.4
20260906054612 54 0 0.0 1.0 0.02 0.22 0.02 97 1014.4
20260906054048 54 0 0.0 1.0 0.02 0.22 0.02 97 1014.4
20260906053544 54 2 0.0 1.0 0.02 0.22 0.02 97 1014.4
20260906053057 54 1 0.0 1.0 0.02 0.22 0.02 97 1014.5
20260906052545 54 3 0.0 2.0 0.02 0.22 0.02 97 1014.5
20260906052046 55 0 0.0 2.0 0.01 0.21 0.01 97 1014.5
20260906051601 55 3 0.0 2.0 0.01 0.21 0.01 97 1014.5
20260906051045 55 289 0.0 1.0 0.00 0.20 0.00 97 1014.4
20260906050545 55 0 0.0 0.0 0.00 0.20 0.00 97 1014.5
20260906050055 55 0 0.0 0.0 0.00 0.20 0.00 97 1014.3
20260906045546 55 0 0.0 0.0 0.00 0.20 0.00 97 1014.3
20260906045046 55 0 0.0 0.0 0.00 0.20 0.00 97 1014.2
20260906044559 55 0 0.0 1.0 0.00 0.20 0.00 97 1014.2
20260906044045 55 0 0.0 1.0 0.00 0.20 0.00 97 1014.2
20260906043545 55 0 0.0 3.0 0.01 0.20 0.00 97 1014.1
20260906043054 55 0 0.0 3.0 0.01 0.20 0.00 97 1014.0
20260906042544 55 0 0.0 1.0 0.01 0.20 0.00 97 1014.1
20260906042045 55 0 0.0 1.0 0.01 0.20 0.00 97 1014.2
20260906041553 55 0 0.0 3.0 0.01 0.20 0.00 97 1014.2
20260906041047 55 300 0.0 3.0 0.01 0.20 0.00 97 1014.2
20260906040544 56 0 0.0 1.0 0.01 0.20 0.00 97 1014.1
20260906040105 56 174 0.0 1.0 0.01 0.20 0.00 97 1014.0
20260906035548 56 173 0.0 1.0 0.01 0.20 0.20 97 1014.1
20260906035045 56 173 0.0 2.0 0.01 0.20 0.20 97 1013.9
20260906034604 56 0 0.0 2.0 0.01 0.20 0.20 97 1014.0
20260906034045 56 173 0.0 1.0 0.01 0.20 0.20 97 1013.9
20260906033544 56 0 0.0 1.0 0.00 0.19 0.19 97 1013.9
20260906033055 56 0 0.0 0.0 0.00 0.19 0.19 97 1013.8
20260906032545 56 0 0.0 0.0 0.00 0.19 0.19 97 1013.8
20260906032045 56 0 0.0 0.0 0.00 0.19 0.19 97 1013.8
20260906031557 56 0 0.0 0.0 0.00 0.19 0.19 97 1013.8
20260906031045 56 0 0.0 0.0 0.00 0.19 0.19 97 1013.6
20260906030545 56 0 0.0 0.0 0.00 0.19 0.19 97 1013.7
20260906030059 56 0 0.0 0.0 0.00 0.19 0.19 97 1013.9
20260906025544 56 0 0.0 0.0 0.00 0.19 0.19 97 1013.9
20260906025047 56 0 0.0 0.0 0.00 0.19 0.19 97 1013.8
20260906024557 56 0 0.0 0.0 0.01 0.19 0.19 97 1014.0
20260906024045 56 0 0.0 0.0 0.01 0.19 0.19 97 1013.9
20260906023544 56 0 0.0 0.0 0.01 0.19 0.19 97 1013.9
20260906023058 56 0 0.0 0.0 0.01 0.19 0.19 97 1013.9
20260906022544 56 0 0.0 0.0 0.01 0.19 0.19 97 1013.9
20260906022045 56 0 0.0 0.0 0.01 0.19 0.19 97 1014.0
20260906021602 56 0 0.0 0.0 0.01 0.19 0.19 97 1014.0
20260906021045 56 0 0.0 0.0 0.01 0.19 0.19 97 1013.9
20260906020546 56 0 0.0 0.0 0.01 0.19 0.19 97 1013.9
20260906020056 56 0 0.0 0.0 0.01 0.19 0.19 97 1014.0
20260906015544 56 0 0.0 0.0 0.01 0.19 0.19 97 1014.0
20260906015044 56 0 0.0 0.0 0.01 0.19 0.19 97 1014.0
20260906014602 57 173 0.0 0.0 0.00 0.18 0.18 97 1014.1
20260906014043 57 0 0.0 0.0 0.00 0.18 0.18 97 1014.1
20260906013546 57 0 0.0 0.0 0.01 0.18 0.18 97 1014.0
20260906013058 57 0 0.0 0.0 0.02 0.18 0.18 97 1014.0
20260906012545 57 0 0.0 0.0 0.03 0.18 0.18 97 1014.0
20260906012044 57 173 0.0 1.0 0.04 0.18 0.18 97 1014.0
20260906011602 57 173 0.0 1.0 0.04 0.18 0.18 97 1014.0
20260906011044 57 0 0.0 1.0 0.06 0.18 0.18 97 1014.0
20260906010541 57 0 0.0 1.0 0.09 0.18 0.18 97 1014.0
20260906010140 57 233 0.0 1.0 0.11 0.18 0.18 97 1014.0
20260906005545 57 0 0.0 1.0 0.13 0.18 0.18 96 1014.0
20260906005049 57 0 0.0 1.0 0.13 0.18 0.18 96 1013.9
20260906004616 57 0 0.0 1.0 0.13 0.18 0.18 96 1014.0
20260906004045 57 0 0.0 1.0 0.14 0.18 0.18 96 1014.0
20260906003545 57 0 0.0 1.0 0.13 0.17 0.17 96 1013.8
20260906003102 57 0 0.0 1.0 0.12 0.16 0.16 96 1013.9
20260906002545 57 0 0.0 0.0 0.12 0.15 0.15 96 1013.7
20260906002045 57 0 0.0 0.0 0.11 0.14 0.14 96 1013.7
20260906001604 58 0 0.0 0.0 0.11 0.14 0.14 96 1013.6
20260906001044 58 0 0.0 1.0 0.10 0.12 0.12 96 1013.7
20260906000544 58 0 0.0 1.0 0.08 0.09 0.09 96 1013.7
20260906000100 58 0 0.0 1.0 0.06 0.07 0.07 96 1013.6
20260905235549 58 210 0.0 1.0 0.04 0.05 0.05 96 1013.7
20260905235044 58 210 0.0 1.0 0.04 0.05 0.05 96 1013.7
20260905234554 58 0 0.0 1.0 0.05 0.05 0.05 96 1013.6
20260905234045 58 0 0.0 1.0 0.04 0.04 0.04 95 1013.5
20260905233545 58 0 0.0 1.0 0.04 0.04 0.04 95 1013.4
20260905233059 58 0 0.0 1.0 0.04 0.04 0.04 95 1013.4
20260905232544 58 0 0.0 0.0 0.03 0.03 0.03 94 1013.4
20260905232047 59 0 0.0 1.0 0.03 0.03 0.03 94 1013.4
20260905231556 59 0 0.0 1.0 0.03 0.03 0.03 94 1013.2
20260905231043 59 0 0.0 1.0 0.02 0.02 0.02 93 1013.2
20260905230544 59 0 0.0 2.0 0.01 0.01 0.01 93 1013.2
20260905225544 59 248 1.0 3.0 0.01 0.01 0.01 92 1013.3
20260905225043 60 0 0.0 3.0 0.01 0.01 0.01 91 1013.2
20260905224555 60 171 0.0 3.0 0.00 0.00 0.00 90 1013.1
20260905224045 61 172 1.0 3.0 0.00 0.00 0.00 88 1013.1
20260905223544 62 172 0.0 4.0 0.00 0.00 0.00 86 1013.1
20260905223058 62 172 1.0 4.0 0.00 0.00 0.00 83 1013.0
20260905222543 63 139 1.0 3.0 0.00 0.00 0.00 84 1013.0
20260905222044 63 0 0.0 2.0 0.00 0.00 0.00 85 1012.6
20260905221603 63 302 0.0 2.0 0.00 0.00 0.00 85 1012.7
20260905221044 63 0 0.0 2.0 0.00 0.00 0.00 86 1012.7
20260905220543 63 0 0.0 2.0 0.00 0.00 0.00 85 1012.6
20260905220100 62 0 1.0 2.0 0.00 0.00 0.00 85 1012.5
20260905215545 63 0 0.0 2.0 0.00 0.00 0.00 84 1012.3
20260905215044 63 77 0.0 2.0 0.00 0.00 0.00 84 1012.3
20260905214553 63 1 0.0 2.0 0.00 0.00 0.00 83 1012.3
20260905214122 63 26 0.0 1.0 0.00 0.00 0.00 84 1012.2
20260905213544 63 166 0.0 2.0 0.00 0.00 0.00 85 1012.2
20260905213101 63 153 0.0 3.0 0.00 0.00 0.00 85 1012.3
20260905212547 63 302 0.0 3.0 0.00 0.00 0.00 84 1012.3
20260905212044 63 255 1.0 3.0 0.00 0.00 0.00 84 1012.2
20260905211601 64 243 0.0 3.0 0.00 0.00 0.00 83 1012.2
20260905211045 65 166 1.0 3.0 0.00 0.00 0.00 82 1012.2
20260905210546 65 295 1.0 2.0 0.00 0.00 0.00 83 1012.2
20260905210110 65 71 1.0 3.0 0.00 0.00 0.00 82 1012.0
20260905205545 65 323 1.0 3.0 0.00 0.00 0.00 83 1011.8
20260905205044 65 315 0.0 2.0 0.00 0.00 0.00 84 1011.8
20260905204559 65 315 1.0 2.0 0.00 0.00 0.00 83 1011.7
20260905204044 65 349 0.0 1.0 0.00 0.00 0.00 83 1011.7
20260905203547 65 0 0.0 1.0 0.00 0.00 0.00 82 1011.9
20260905203058 65 349 0.0 1.0 0.00 0.00 0.00 83 1011.8
20260905202550 65 349 0.0 1.0 0.00 0.00 0.00 82 1011.8
20260905202045 65 0 0.0 4.0 0.00 0.00 0.00 83 1011.9
20260905201556 65 0 0.0 4.0 0.00 0.00 0.00 82 1011.8
20260905201048 65 39 1.0 4.0 0.00 0.00 0.00 80 1011.9
20260905200544 65 18 0.0 3.0 0.00 0.00 0.00 81 1011.7
20260905200122 65 0 1.0 3.0 0.00 0.00 0.00 81 1011.6
20260905195545 66 136 0.0 4.0 0.00 0.00 0.00 81 1011.6
20260905195044 66 300 1.0 4.0 0.00 0.00 0.00 79 1011.6
20260905194555 67 167 1.0 4.0 0.00 0.00 0.00 78 1011.6
20260905194051 66 166 1.0 4.0 0.00 0.00 0.00 74 1011.6
20260905193545 66 164 0.0 3.0 0.00 0.00 0.00 82 1011.6
20260905193101 66 164 0.0 3.0 0.00 0.00 0.00 79 1011.6
20260905192545 66 281 0.0 2.0 0.00 0.00 0.00 80 1011.6
20260905192045 66 247 0.0 3.0 0.00 0.00 0.00 79 1011.6
20260905191556 66 258 0.0 4.0 0.00 0.00 0.00 81 1011.7
20260905191044 66 163 0.0 4.0 0.00 0.00 0.00 79 1011.6
20260905190545 65 164 1.0 3.0 0.00 0.00 0.00 83 1011.6
20260905190057 65 79 1.0 3.0 0.00 0.00 0.00 81 1011.7
20260905185544 65 263 0.0 1.0 0.00 0.00 0.00 81 1011.7
20260905185047 64 304 0.0 2.0 0.00 0.00 0.00 85 1011.8
20260905184609 64 304 0.0 3.0 0.00 0.00 0.00 85 1011.7
20260905184048 63 302 1.0 3.0 0.00 0.00 0.00 84 1011.8
20260905183547 63 32 0.0 4.0 0.00 0.00 0.00 84 1011.8
20260905183059 63 108 1.0 4.0 0.00 0.00 0.00 84 1011.7
20260905182544 63 322 1.0 4.0 0.00 0.00 0.00 85 1011.8
20260905182045 64 280 1.0 4.0 0.00 0.00 0.00 84 1011.7
20260905181558 64 269 0.0 4.0 0.00 0.00 0.00 85 1011.8
20260905181042 64 266 1.0 4.0 0.00 0.00 0.00 84 1011.7
20260905180542 64 0 1.0 3.0 0.00 0.00 0.00 84 1011.7
20260905175542 64 249 0.0 5.0 0.00 0.00 0.00 88 1011.8
20260905175045 63 92 1.0 4.0 0.00 0.00 0.00 87 1011.7
20260905174603 63 306 0.0 3.0 0.00 0.00 0.00 86 1011.9
20260905174043 64 303 1.0 3.0 0.00 0.00 0.00 85 1012.0
20260905173545 65 307 1.0 4.0 0.00 0.00 0.00 81 1012.0
20260905173103 65 182 1.0 4.0 0.00 0.00 0.00 79 1011.9
20260905172544 65 303 1.0 5.0 0.00 0.00 0.00 78 1011.9
20260905172042 65 246 0.0 5.0 0.00 0.00 0.00 78 1011.7
20260905171556 65 247 0.0 3.0 0.00 0.00 0.00 78 1011.9
20260905171044 65 300 0.0 3.0 0.00 0.00 0.00 74 1011.9
20260905170542 65 195 1.0 3.0 0.00 0.00 0.00 76 1011.9
20260905170100 65 271 0.0 4.0 0.00 0.00 0.00 78 1011.8
20260905165545 65 274 0.0 4.0 0.00 0.00 0.00 78 1011.9
20260905165044 65 312 1.0 6.0 0.00 0.00 0.00 76 1011.9
20260905164607 65 264 1.0 6.0 0.00 0.00 0.00 79 1011.8
20260905164043 65 243 1.0 4.0 0.00 0.00 0.00 77 1012.0
20260905163543 65 327 0.0 6.0 0.00 0.00 0.00 80 1011.7
20260905163056 65 180 2.0 6.0 0.00 0.00 0.00 74 1011.8
20260905162545 65 181 1.0 6.0 0.00 0.00 0.00 75 1011.8
20260905162041 65 179 1.0 5.0 0.00 0.00 0.00 80 1012.0
20260905161557 65 176 0.0 5.0 0.00 0.00 0.00 76 1011.9
20260905161044 65 168 0.0 4.0 0.00 0.00 0.00 83 1011.9
20260905160544 65 170 1.0 4.0 0.00 0.00 0.00 80 1011.9
20260905160059 64 60 1.0 5.0 0.00 0.00 0.00 79 1011.9
20260905155542 64 294 1.0 5.0 0.00 0.00 0.00 78 1012.0
20260905155043 65 283 1.0 4.0 0.00 0.00 0.00 81 1012.0
20260905154605 65 289 1.0 3.0 0.00 0.00 0.00 80 1011.9
20260905154042 66 242 1.0 4.0 0.00 0.00 0.00 78 1011.9
20260905153546 66 255 1.0 4.0 0.00 0.00 0.00 75 1011.8
20260905153103 65 285 1.0 3.0 0.00 0.00 0.00 81 1011.8
20260905152543 64 297 1.0 4.0 0.00 0.00 0.00 81 1011.9
20260905152042 64 271 1.0 4.0 0.00 0.00 0.00 79 1011.8
20260905151628 65 303 1.0 4.0 0.00 0.00 0.00 80 1011.7
20260905151044 64 253 0.0 5.0 0.00 0.00 0.00 82 1011.7
20260905150546 64 229 1.0 5.0 0.00 0.00 0.00 80 1011.8
20260905150058 64 0 0.0 3.0 0.00 0.00 0.00 81 1011.7
20260905145550 64 0 0.0 3.0 0.00 0.00 0.00 81 1011.7
20260905145046 64 317 1.0 3.0 0.00 0.00 0.00 80 1011.6
20260905144555 64 252 0.0 1.0 0.00 0.00 0.00 83 1011.7
20260905144046 64 0 0.0 2.0 0.00 0.00 0.00 83 1011.7
20260905143546 65 0 0.0 7.0 0.00 0.00 0.00 82 1011.7
20260905143056 65 94 1.0 7.0 0.00 0.00 0.00 85 1011.7
20260905142548 65 262 1.0 3.0 0.00 0.00 0.00 83 1011.6
20260905142049 65 251 1.0 3.0 0.00 0.00 0.00 83 1011.6
20260905141558 64 245 0.0 3.0 0.00 0.00 0.00 84 1011.6
20260905141045 63 224 0.0 3.0 0.00 0.00 0.00 84 1011.5
20260905140544 63 225 0.0 1.0 0.00 0.00 0.00 85 1011.5
20260905140058 62 0 0.0 2.0 0.00 0.00 0.00 85 1011.6
20260905135547 62 0 0.0 2.0 0.00 0.00 0.00 85 1011.6
20260905135046 62 265 0.0 2.0 0.00 0.00 0.00 87 1011.5
20260905134555 62 270 0.0 2.0 0.00 0.00 0.00 87 1011.5
20260905134049 63 266 0.0 2.0 0.00 0.00 0.00 85 1011.5
20260905133544 63 291 1.0 2.0 0.00 0.00 0.00 86 1011.5
20260905133056 63 148 0.0 4.0 0.00 0.00 0.00 87 1011.5
20260905132545 63 340 0.0 4.0 0.00 0.00 0.00 87 1011.5
20260905132045 62 255 1.0 4.0 0.00 0.00 0.00 87 1011.4
20260905131608 62 0 0.0 4.0 0.00 0.00 0.00 89 1011.3
20260905131045 61 312 1.0 4.0 0.00 0.00 0.00 86 1011.4
20260905130546 62 266 0.0 2.0 0.00 0.00 0.00 89 1011.4
20260905130053 61 0 0.0 3.0 0.00 0.00 0.00 90 1011.4
20260905125546 61 266 0.0 3.0 0.00 0.00 0.00 88 1011.3
20260905125046 61 30 0.0 2.0 0.00 0.00 0.00 89 1011.3
20260905124559 61 0 0.0 2.0 0.00 0.00 0.00 88 1011.3
20260905124045 61 250 0.0 4.0 0.00 0.00 0.00 89 1011.3
20260905123547 60 261 0.0 4.0 0.00 0.00 0.00 89 1011.3
20260905123109 60 169 1.0 3.0 0.00 0.00 0.00 89 1011.3
20260905122550 60 162 0.0 1.0 0.00 0.00 0.00 92 1011.3
20260905122046 60 0 0.0 2.0 0.00 0.00 0.00 91 1011.4
20260905121553 60 222 0.0 2.0 0.00 0.00 0.00 92 1011.1
20260905121046 60 0 0.0 1.0 0.00 0.00 0.00 92 1011.2
20260905120546 59 271 0.0 2.0 0.00 0.00 0.00 92 1011.1
20260905120058 59 0 0.0 2.0 0.00 0.00 0.00 93 1011.2
20260905115546 59 337 0.0 1.0 0.00 0.00 0.00 93 1011.1
20260905115046 59 294 0.0 3.0 0.00 0.00 0.00 94 1011.1